Bat Cave, NC

12:41 PM EDT on August 30, 2016 (GMT -0400)
Asheville Regional

Weather History for KAVL - April, 2008

Change the Weather History Date:

Tuesday, April 8, 2008

  Actual Average Record
Temperature  
Mean Temperature 53 °F 53 °F  
Max Temperature 57 °F 66 °F 89 °F (1893)
Min Temperature 48 °F 41 °F 22 °F (2007)
Degree Days  
Heating Degree Days 12 12  
Month to date heating degree days 74 103  
Since 1 July heating degree days 3636 3875  
Cooling Degree Days 0 0  
Month to date cooling degree days 0 0  
Year to date cooling degree days 0 1  
Growing Degree Days 2 (Base 50)    
Moisture  
Dew Point 46 °F    
Average Humidity 80    
Maximum Humidity 93    
Minimum Humidity 67    
Precipitation  
Precipitation 0.00 in 0.12 in 3.15 in (1895)
Month to date precipitation 1.43 0.91  
Year to date precipitation 12.29 12.17  
Snow  
Snow 0.00 in 0.10 in 3.00 in (1982)
Month to date snowfall 0.0 0.4  
Since 1 July snowfall 3.8 9.6  
Snow Depth -    
Sea Level Pressure  
Sea Level Pressure 30.18 in    
Wind  
Wind Speed 7 mph (SSE)    
Max Wind Speed 15 mph    
Max Gust Speed 17 mph    
Visibility 9 miles    
Events      
T = Trace of Precipitation, MM = Missing Value Source: NWS Daily Summary

Daily Weather History Graph

Daily Weather History Graph

Search for Another Location

Airport or City:

Trip Planner

Search our weather history database for the weather conditions in past years. The results will help you decide how hot, cold, wet, or windy it might be!

Date:

Astronomy

Apr. 08, 2008 Rise Set
Actual Time 7:06 AM EDT 7:57 PM EDT
Civil Twilight 6:40 AM EDT 8:23 PM EDT
Nautical Twilight 6:09 AM EDT 8:54 PM EDT
Astronomical Twilight 5:38 AM EDT 9:26 PM EDT
Moon 8:24 AM EDT (4/8) 11:29 PM EDT (4/8)
Length of Visible Light 13h 43m
Length of Day
12h 51m
Waxing Crescent, 9% of the Moon is Illuminated
Apr 8
Waxing Crescent
Apr 12
First Quarter
Apr 20
Full
Apr 28
Last Quarter
May 5
New

Hourly Weather History & Observations

Time (EDT) Temp. Dew Point Humidity Pressure Visibility Wind Dir Wind Speed Gust Speed Precip Events Conditions
12:54 AM 52.0 °F 46.9 °F 83% 30.16 in 10.0 mi South 6.9 mph - N/A   Overcast
1:54 AM 52.0 °F 46.9 °F 83% 30.15 in 10.0 mi SSE 6.9 mph - N/A   Overcast
2:54 AM 51.1 °F 46.0 °F 83% 30.14 in 10.0 mi South 8.1 mph - N/A   Overcast
3:54 AM 51.1 °F 46.0 °F 83% 30.14 in 10.0 mi South 5.8 mph - N/A   Overcast
4:54 AM 50.0 °F 46.0 °F 86% 30.12 in 8.0 mi South 4.6 mph - N/A   Overcast
5:54 AM 50.0 °F 46.0 °F 86% 30.12 in 8.0 mi South 4.6 mph - N/A   Overcast
6:37 AM 50.0 °F 46.4 °F 87% 30.17 in 8.0 mi South 5.8 mph - N/A   Overcast
6:54 AM 48.9 °F 46.0 °F 90% 30.14 in 7.0 mi South 5.8 mph - N/A   Overcast
7:42 AM 48.2 °F 46.4 °F 93% 30.19 in 5.0 mi South 5.8 mph - N/A   Overcast
7:54 AM 48.9 °F 46.0 °F 90% 30.16 in 6.0 mi Variable 4.6 mph - N/A   Overcast
8:54 AM 48.9 °F 46.0 °F 90% 30.18 in 6.0 mi SSE 6.9 mph - N/A   Overcast
9:54 AM 48.0 °F 46.9 °F 96% 30.19 in 4.0 mi SSE 8.1 mph - N/A   Overcast
10:54 AM 48.0 °F 46.0 °F 93% 30.21 in 3.0 mi SE 6.9 mph - N/A   Overcast
11:54 AM 48.9 °F 46.0 °F 90% 30.21 in 9.0 mi South 5.8 mph - N/A   Overcast
12:54 PM 50.0 °F 46.0 °F 86% 30.21 in 6.0 mi SSE 8.1 mph - N/A   Overcast
1:54 PM 51.1 °F 46.9 °F 86% 30.20 in 10.0 mi South 8.1 mph - N/A   Overcast
2:54 PM 51.1 °F 46.0 °F 83% 30.18 in 10.0 mi SSE 8.1 mph - N/A   Overcast
3:52 PM 53.6 °F 46.4 °F 77% 30.19 in 10.0 mi South 9.2 mph - N/A   Overcast
3:54 PM 53.1 °F 46.9 °F 80% 30.17 in 10.0 mi South 8.1 mph - N/A   Overcast
4:34 PM 55.4 °F 48.2 °F 77% 30.18 in 10.0 mi South 11.5 mph - N/A   Scattered Clouds
4:54 PM 55.9 °F 46.9 °F 72% 30.15 in 10.0 mi South 12.7 mph - N/A   Clear
5:54 PM 55.9 °F 46.9 °F 72% 30.14 in 10.0 mi SE 10.4 mph - N/A   Clear
6:54 PM 57.0 °F 46.0 °F 67% 30.14 in 10.0 mi SE 9.2 mph - N/A   Clear
7:54 PM 54.0 °F 45.0 °F 72% 30.16 in 10.0 mi SE 5.8 mph - N/A   Clear
8:54 PM 51.1 °F 45.0 °F 80% 30.18 in 10.0 mi South 5.8 mph - N/A   Clear
9:25 PM 51.8 °F 44.6 °F 76% 30.21 in 10.0 mi SSE 3.5 mph - N/A   Mostly Cloudy
9:54 PM 52.0 °F 46.0 °F 80% 30.20 in 10.0 mi SSE 4.6 mph - N/A   Overcast
10:42 PM 50.0 °F 44.6 °F 82% 30.22 in 10.0 mi South 4.6 mph - N/A   Mostly Cloudy
10:54 PM 48.9 °F 45.0 °F 86% 30.20 in 10.0 mi SSE 4.6 mph - N/A   Partly Cloudy
11:22 PM 50.0 °F 44.6 °F 82% 30.22 in 10.0 mi SE 4.6 mph - N/A   Mostly Cloudy
11:54 PM 50.0 °F 45.0 °F 83% 30.21 in 10.0 mi South 4.6 mph - N/A   Overcast